KBKL

Cleveland Burke Lakefront Airport

Airport
ICAO code
KBKL
IATA Code
BKL
Summary
ICAO Region
NAM
ICAO Territory
Location

Cleveland, Ohio

Serving
Cleveland
Elevation
583 ft
Coordinates
41° 31' 21" N , 81° 40' 9" W
KCC
Airport BS
Bird Strike
Airport RE
Landing on Contaminated Runways
Metar
KBKL 142153Z 26014KT 10SM SCT065 18/11 A2965 RMK AO2 RAE2058 SLP039 P0000 T01830111

Description

Cleveland Burke Lakefront Airport is a public use airport situated on the shore of Lake Erie, in the northeast part of downtown Cleveland, in Cuyahoga County, Ohio, USA.

Airport map

Aerial View

SKYbrary Partners:

Safety knowledge contributed by: